Date_and_time,latitude,longitude,wind_speed,RelWindDirFrom,WindDirFrom,air_pressure,air_temperature,relative_humidity,Temp,platform_speed_wrt_ground,air_pressure_at_mean_sea_level,platform_orientation
2018-08-01 23:40,50.4654183333333,-96.8437416666667,10.0,12.7,343,991.38,14.8,58,20.91,10.7,1017.93,175.4
2018-08-01 23:50,50.4959366666667,-96.85428,10.8,13.4,343,991.30,14.6,59,20.87,11.2,1017.86,175.4
2018-08-02 00:00,50.5263966666667,-96.86511,10.7,13.7,349,991.10,14.6,58,20.94,11.2,1017.65,347.8
2018-08-02 00:10,50.557125,-96.8762266666667,9.5,12.3,360,991.04,14.7,58,21.01,11.4,1017.58,347.8
2018-08-02 00:20,50.5874466666667,-96.8873516666667,7.9,10.7,9,990.99,14.8,58,21.03,11.2,1017.51,347.8
2018-08-02 00:30,50.611925,-96.91281,5.4,9.1,333,990.94,15.0,59,21.08,10.6,1017.45,347.8
2018-08-02 00:40,50.624825,-96.95625,5.8,9.2,272,990.80,15.1,59,20.93,11.0,1017.30,347.8
2018-08-02 00:50,50.6303983333333,-96.9807283333333,4.3,9.9,198,990.76,15.2,59,20.78,5.9,1017.26,347.8
2018-08-02 01:00,50.63044,-96.9807466666667,6.2,9.4,139,990.72,16.0,56,20.13,0.0,1017.17,334.6
2018-08-02 01:10,50.6304316666667,-96.9807466666667,5.8,8.6,143,990.62,15.1,60,19.99,0.0,1017.09,334.6
2018-08-02 01:20,50.6304266666667,-96.980745,6.0,8.0,141,990.56,15.0,60,19.95,0.0,1017.03,334.6
2018-08-02 01:30,50.630425,-96.980745,5.7,7.8,147,990.55,14.8,59,19.97,0.0,1017.04,334.6
2018-08-02 01:40,50.630425,-96.9807483333333,5.4,7.3,154,990.50,14.8,60,19.99,0.0,1016.99,334.6
2018-08-02 01:50,50.630425,-96.9807483333333,5.3,7.4,161,990.45,14.6,59,19.99,0.0,1016.95,334.6
2018-08-02 02:00,50.6304233333333,-96.9807483333333,5.5,6.9,178,990.46,14.5,62,19.97,0.0,1016.96,334.6
2018-08-02 02:10,50.6304233333333,-96.98075,5.0,6.6,186,990.52,14.3,65,19.94,0.0,1017.03,334.6
2018-08-02 02:20,50.6304233333333,-96.98075,5.2,6.9,185,990.43,14.2,65,19.93,0.0,1016.94,334.6
2018-08-02 02:30,50.6304166666667,-96.9807216666667,3.8,5.4,208,990.38,13.7,68,19.93,0.0,1016.90,334.6
2018-08-02 02:40,50.630425,-96.9807566666667,3.4,5.3,218,990.40,13.3,70,19.94,0.0,1016.94,334.6
2018-08-02 02:50,50.6304233333333,-96.980755,3.0,5.3,215,990.46,13.0,71,19.92,0.0,1016.97,334.6
2018-08-02 03:00,50.6304233333333,-96.980755,4.4,5.7,198,990.34,13.0,72,19.91,0.0,1016.90,324.8
2018-08-02 03:10,50.6304266666667,-96.9807533333333,5.6,7.0,207,990.37,13.0,71,19.92,0.0,1016.93,324.8
2018-08-02 03:20,50.630425,-96.9807516666667,5.9,7.5,205,990.33,12.5,72,19.93,0.0,1016.91,324.8
2018-08-02 03:30,50.630425,-96.98075,5.9,7.7,211,990.37,12.4,71,19.91,0.0,1016.96,324.8
2018-08-02 03:40,50.6304266666667,-96.98075,5.4,6.9,213,990.41,12.3,71,19.88,0.0,1017.02,324.8
2018-08-02 03:50,50.6304266666667,-96.98075,4.7,6.2,228,990.45,12.0,71,19.87,0.0,1017.07,324.8
2018-08-02 04:00,50.6304283333333,-96.98075,4.0,5.4,220,990.37,11.6,73,19.85,0.0,1017.03,360.0
2018-08-02 04:10,50.6304366666667,-96.98075,4.1,5.8,210,990.29,11.7,75,19.83,0.0,1016.94,360.0
2018-08-02 04:20,50.6304433333333,-96.980755,4.8,6.2,210,990.19,11.8,75,19.81,0.0,1016.86,360.0
2018-08-02 04:30,50.6304283333333,-96.9807466666667,4.1,5.7,200,990.01,11.9,76,19.81,0.0,1016.68,360.0
2018-08-02 04:40,50.6304283333333,-96.9807416666667,4.7,6.3,203,990.00,12.3,76,19.79,0.0,1016.67,360.0
2018-08-02 04:50,50.630445,-96.9807383333333,5.0,6.7,210,990.03,12.0,75,19.78,0.0,1016.72,360.0
2018-08-02 05:00,50.6304416666667,-96.980745,5.2,6.6,208,990.01,11.6,77,19.78,0.0,1016.71,39.5
2018-08-02 05:10,50.6304533333333,-96.9807383333333,5.2,6.9,219,990.09,11.3,78,19.79,0.0,1016.84,39.5
2018-08-02 05:20,50.6304366666667,-96.9807366666667,4.8,6.5,224,990.14,10.6,80,19.77,0.0,1016.93,39.5
2018-08-02 05:30,50.6304316666667,-96.9807466666667,4.1,5.7,217,990.11,10.4,82,19.75,0.0,1016.90,39.5
2018-08-02 05:40,50.6304316666667,-96.9807466666667,4.1,5.7,206,989.95,10.5,83,19.74,0.0,1016.75,39.5
2018-08-02 05:50,50.6304316666667,-96.9807483333333,5.4,7.8,197,989.78,11.1,81,19.73,0.0,1016.57,39.5
2018-08-02 06:00,50.6304316666667,-96.9807483333333,6.4,9.1,190,989.64,11.4,82,19.71,0.0,1016.40,48.3
2018-08-02 06:10,50.63043,-96.9807483333333,6.0,7.3,194,989.62,11.3,82,19.70,0.0,1016.38,48.3
2018-08-02 06:20,50.6304283333333,-96.9807483333333,6.3,8.5,192,989.51,11.1,83,19.69,0.0,1016.28,48.3
2018-08-02 06:30,50.6304283333333,-96.9807483333333,6.8,9.3,196,989.49,11.0,83,19.69,0.0,1016.25,48.3
2018-08-02 06:40,50.6304266666667,-96.9807466666667,7.2,9.3,196,989.47,10.8,83,19.67,0.0,1016.25,48.3
2018-08-02 06:50,50.6304266666667,-96.9807466666667,7.1,9.6,198,989.40,10.8,84,19.63,0.0,1016.19,48.3
2018-08-02 07:00,50.6304266666667,-96.9807466666667,7.2,9.6,202,989.28,10.8,84,19.58,0.0,1016.09,90.0
2018-08-02 07:10,50.6304266666667,-96.9807483333333,7.4,9.5,207,989.22,10.7,83,19.57,0.0,1016.06,90.0
2018-08-02 07:20,50.6304266666667,-96.9807483333333,6.3,7.9,211,989.20,10.3,83,19.54,0.0,1016.07,90.0
2018-08-02 07:30,50.6304283333333,-96.9807666666667,6.0,7.9,207,989.13,10.1,85,19.50,0.0,1016.00,90.0
2018-08-02 07:40,50.630425,-96.9807583333333,6.7,9.4,204,989.02,10.2,85,19.48,0.0,1015.86,90.0
2018-08-02 07:50,50.6304266666667,-96.9807566666667,8.1,11.0,198,988.92,10.5,85,19.47,0.0,1015.73,90.0
2018-08-02 08:00,50.6304283333333,-96.9807566666667,9.3,11.2,193,988.79,10.8,85,19.44,0.0,1015.58,212.5
2018-08-02 08:10,50.63043,-96.9807533333333,9.1,11.3,198,988.79,10.6,86,19.43,0.0,1015.60,212.5
2018-08-02 08:20,50.63043,-96.9807533333333,8.8,10.6,198,988.73,10.6,86,19.40,0.0,1015.55,212.5
2018-08-02 08:30,50.63043,-96.9807533333333,8.0,9.9,200,988.63,10.5,87,19.38,0.0,1015.45,212.5
2018-08-02 08:40,50.6304283333333,-96.9807533333333,6.9,9.1,205,988.56,10.3,87,19.37,0.0,1015.39,212.5
2018-08-02 08:50,50.63043,-96.98074,8.1,11.3,195,988.45,10.2,89,19.35,0.0,1015.29,212.5
2018-08-02 09:00,50.630435,-96.98075,9.7,11.9,193,988.48,9.9,91,19.33,0.0,1015.33,38.0
2018-08-02 09:10,50.6304316666667,-96.9807416666667,8.9,12.3,198,988.39,9.6,92,19.35,0.0,1015.28,38.0
2018-08-02 09:20,50.63043,-96.9807416666667,8.1,11.1,199,988.36,9.6,92,19.32,0.0,1015.25,38.0
2018-08-02 09:30,50.6303966666667,-96.980715,7.6,10.4,198,988.30,9.6,92,19.28,0.0,1015.18,38.0
2018-08-02 09:40,50.6304216666667,-96.9807383333333,7.6,9.9,205,988.28,9.6,91,19.27,0.0,1015.15,38.0
2018-08-02 09:50,50.63043,-96.98074,7.1,9.9,204,988.17,9.5,91,19.28,0.0,1015.03,38.0
2018-08-02 10:00,50.63043,-96.9807416666667,7.9,10.3,201,988.11,9.5,91,19.28,0.0,1014.98,0.0
2018-08-02 10:10,50.63043,-96.98074,8.0,10.5,195,988.00,9.4,92,19.24,0.0,1014.87,0.0
2018-08-02 10:20,50.63043,-96.9807383333333,9.2,11.8,196,987.84,9.4,92,19.23,0.0,1014.72,0.0
2018-08-02 10:30,50.630435,-96.98074,9.3,12.2,200,987.90,9.5,92,19.21,0.0,1014.78,0.0
2018-08-02 10:40,50.6304366666667,-96.9807383333333,9.1,12.1,195,987.79,9.7,91,19.19,0.0,1014.66,0.0
2018-08-02 10:50,50.630435,-96.9807416666667,9.1,12.0,197,987.78,9.7,91,19.18,0.0,1014.66,0.0
2018-08-02 11:00,50.6304366666667,-96.980785,9.4,12.0,193,987.80,9.8,90,19.15,0.0,1014.69,302.3
2018-08-02 11:10,50.6304383333333,-96.9807516666667,9.4,12.2,194,987.85,9.9,89,19.14,0.0,1014.74,302.3
2018-08-02 11:20,50.63043,-96.980765,8.7,11.5,197,987.90,10.1,89,19.12,0.0,1014.78,302.3
2018-08-02 11:30,50.630435,-96.980755,8.4,11.7,198,987.89,10.3,88,19.12,0.0,1014.76,302.3
2018-08-02 11:40,50.630435,-96.9807516666667,8.4,12.3,196,987.76,10.5,88,19.10,0.0,1014.63,302.3
2018-08-02 11:50,50.630435,-96.98075,9.8,14.3,195,987.70,10.4,88,19.09,0.0,1014.56,302.3
2018-08-02 12:00,50.6304333333333,-96.980745,10.0,13.3,197,987.65,10.2,89,19.07,0.0,1014.53,131.7
2018-08-02 12:10,50.6304466666667,-96.9807016666667,9.7,13.4,197,987.76,10.2,88,19.05,0.0,1014.64,131.7
2018-08-02 12:20,50.63044,-96.98073,9.7,12.8,195,987.74,10.2,89,19.03,0.0,1014.62,131.7
2018-08-02 12:30,50.630435,-96.98073,9.9,13.3,198,987.76,10.1,88,19.02,0.0,1014.63,131.7
2018-08-02 12:40,50.630435,-96.9807683333333,9.2,11.8,205,987.86,10.0,88,19.00,0.0,1014.74,131.7
2018-08-02 12:50,50.6304333333333,-96.98075,9.9,12.5,208,987.96,10.0,88,18.99,0.0,1014.84,131.7
2018-08-02 13:00,50.6304183333333,-96.9807416666667,9.8,12.3,212,987.83,10.2,87,18.96,0.0,1014.69,360.0
2018-08-02 13:10,50.6304216666667,-96.98076,9.2,12.6,214,987.77,10.4,86,18.94,0.0,1014.61,360.0
2018-08-02 13:20,50.6304166666667,-96.980755,9.5,12.7,217,987.73,10.7,85,18.94,0.0,1014.54,360.0
2018-08-02 13:30,50.63042,-96.9807566666667,9.0,11.3,210,987.73,11.1,84,18.93,0.0,1014.51,360.0
2018-08-02 13:40,50.63042,-96.980755,7.8,10.2,218,987.91,11.4,82,18.93,0.0,1014.69,360.0
2018-08-02 13:50,50.63042,-96.9807533333333,7.6,10.2,220,987.98,12.0,79,18.93,0.0,1014.75,360.0
2018-08-02 14:00,50.6304216666667,-96.9807316666667,8.5,12.6,212,987.90,12.4,77,18.92,0.0,1014.64,114.7
2018-08-02 14:10,50.630425,-96.9807333333333,7.7,10.4,199,987.76,12.8,76,18.89,0.0,1014.48,114.7
2018-08-02 14:20,50.630425,-96.9807333333333,7.9,10.8,181,987.24,13.1,75,18.89,0.0,1013.94,114.7
2018-08-02 14:30,50.6304266666667,-96.9807383333333,9.5,11.8,176,986.97,13.1,75,18.90,0.0,1013.67,114.7
2018-08-02 14:40,50.6304283333333,-96.9807416666667,10.3,15.1,185,986.93,13.6,72,18.92,0.0,1013.60,114.7
2018-08-02 14:50,50.6304283333333,-96.9807416666667,11.3,15.8,189,987.10,14.2,68,18.92,0.0,1013.73,114.7
2018-08-02 15:00,50.63043,-96.9807433333333,10.2,13.1,182,986.84,14.6,66,18.93,0.0,1013.44,360.0
2018-08-02 15:10,50.63043,-96.980745,10.9,13.9,183,986.87,15.1,65,18.94,0.0,1013.44,360.0
2018-08-02 15:20,50.63043,-96.980745,12.5,15.7,181,986.96,15.3,63,18.97,0.0,1013.50,360.0
2018-08-02 15:30,50.63043,-96.9807466666667,11.5,16.1,187,986.86,15.6,62,19.00,0.0,1013.36,360.0
2018-08-02 15:40,50.63043,-96.980745,14.2,18.3,179,986.83,16.0,61,19.02,0.0,1013.29,360.0
2018-08-02 15:50,50.6304316666667,-96.9807466666667,13.3,17.8,193,986.71,16.4,58,19.05,0.0,1013.14,360.0
2018-08-02 16:00,50.6304316666667,-96.9807466666667,11.7,16.2,187,986.60,16.6,58,19.06,0.0,1012.99,360.0
2018-08-02 16:10,50.6304316666667,-96.9807466666667,12.9,16.7,178,986.52,16.8,58,19.07,0.0,1012.88,360.0
2018-08-02 16:20,50.62997,-96.9808283333333,11.1,14.5,183,986.43,17.3,56,19.10,0.2,1012.76,360.0
2018-08-02 16:30,50.63353,-96.9514516666667,11.4,17.6,166,986.35,18.0,56,19.37,6.8,1012.64,360.0
2018-08-02 16:40,50.6332933333333,-96.950215,12.6,15.0,176,986.08,17.7,57,20.00,0.3,1012.34,360.0
2018-08-02 16:50,50.6332766666667,-96.9501166666667,14.7,18.5,179,985.77,17.9,57,20.11,0.0,1011.99,360.0
2018-08-02 17:00,50.6332833333333,-96.9503066666667,14.1,17.6,179,985.79,18.2,55,20.16,0.0,1011.98,81.6
2018-08-02 17:10,50.6330583333333,-96.9502016666667,13.1,16.9,181,985.81,18.4,56,20.22,0.1,1011.98,81.6
2018-08-02 17:20,50.63169,-96.9573383333333,12.9,15.2,186,986.05,18.4,56,20.24,1.7,1012.22,81.6
2018-08-02 17:30,50.6291016666667,-96.96505,13.4,16.5,201,985.72,18.9,53,20.19,2.0,1011.83,81.6
2018-08-02 17:40,50.6254883333333,-96.9700966666667,15.2,20.3,194,985.39,19.3,53,20.04,1.7,1011.46,81.6
2018-08-02 17:50,50.62724,-96.9740316666667,12.2,19.5,210,985.36,19.6,53,19.91,1.1,1011.40,81.6
2018-08-02 18:00,50.6304583333333,-96.9807816666667,10.7,17.5,194,985.29,19.9,51,19.78,1.9,1011.31,323.4
2018-08-02 18:10,50.6304533333333,-96.9807716666667,12.1,19.8,179,985.09,19.8,51,19.54,0.0,1011.09,323.4
2018-08-02 18:20,50.6304533333333,-96.980765,13.5,18.2,181,984.84,20.0,49,19.50,0.0,1010.79,323.4
2018-08-02 18:30,50.6304533333333,-96.98076,13.1,18.0,172,984.68,20.3,50,19.49,0.0,1010.63,323.4
2018-08-02 18:40,50.62942,-96.9731633333333,12.2,17.9,181,984.54,21.0,48,19.54,1.8,1010.44,323.4
2018-08-02 18:50,50.64692,-96.9336733333333,16.4,24.0,126,984.31,20.5,56,19.97,11.0,1010.22,323.4
2018-08-02 19:00,50.634815,-96.9024,24.3,29.7,148,983.55,19.5,61,20.41,8.4,1009.47,84.9
2018-08-02 19:10,50.6114116666667,-96.8749616666667,25.9,29.9,156,983.33,19.7,58,20.43,10.5,1009.23,84.9
2018-08-02 19:20,50.5876716666667,-96.846545,24.2,28.4,158,983.46,19.9,57,20.55,10.7,1009.34,84.9
2018-08-02 19:30,50.563975,-96.817835,22.8,25.8,158,983.46,20.1,55,20.60,10.8,1009.31,84.9
2018-08-02 19:40,50.54022,-96.7890683333333,22.5,26.4,158,983.48,20.2,54,20.59,10.8,1009.32,84.9
2018-08-02 19:50,50.51652,-96.7594866666667,20.9,24.2,158,983.57,20.3,52,20.60,10.9,1009.39,84.9
2018-08-02 20:00,50.49255,-96.7299333333333,18.5,22.1,159,983.56,20.6,51,20.67,11.0,1009.37,135.1
2018-08-02 20:10,50.48375,-96.71802,11.4,17.2,166,983.92,20.8,51,20.65,4.2,1009.72,135.1
2018-08-02 20:20,50.4779783333333,-96.71231,10.0,12.0,163,983.86,21.0,49,20.66,2.5,1009.64,135.1
2018-08-02 20:30,50.4727916666667,-96.70629,14.3,20.1,157,983.59,21.1,50,20.71,2.3,1009.33,135.1
2018-08-02 20:40,50.46724,-96.7032083333333,15.4,18.4,158,983.45,20.9,51,20.69,2.1,1009.21,135.1
2018-08-02 20:50,50.4575383333333,-96.6876816666667,14.9,17.9,162,983.63,20.8,51,20.64,5.0,1009.44,135.1
2018-08-02 21:00,50.45775,-96.6877116666667,12.5,14.5,174,984.00,20.8,50,20.65,0.1,1009.82,132.7
2018-08-02 21:10,50.457485,-96.6781266666667,12.0,16.7,165,984.12,20.9,51,20.64,2.2,1009.93,132.7
2018-08-02 21:20,50.4620783333333,-96.6376166666667,13.3,15.8,133,984.24,21.0,50,20.75,9.4,1010.04,132.7
2018-08-02 21:30,50.4623116666667,-96.6212933333333,10.2,13.7,156,984.29,21.1,48,21.05,3.7,1010.08,132.7
2018-08-02 21:40,50.4624866666667,-96.62314,8.7,12.5,170,984.23,21.1,46,21.15,0.4,1010.01,132.7
2018-08-02 21:50,50.486505,-96.6338866666667,0.3,3.7,302,984.30,21.4,48,21.10,9.0,1010.06,132.7
2018-08-02 22:00,50.5125983333333,-96.64557,1.1,3.1,290,984.25,21.3,48,20.85,9.8,1010.00,126.7
2018-08-02 22:10,50.5308266666667,-96.6545283333333,6.1,14.9,215,984.19,21.0,51,20.90,6.9,1009.95,126.7
2018-08-02 22:20,50.537475,-96.6593633333333,13.0,15.2,209,984.14,20.8,53,21.08,2.6,1009.90,126.7
2018-08-02 22:30,50.5452066666667,-96.66043,12.6,15.2,205,983.96,20.6,54,21.28,2.8,1009.73,126.7
2018-08-02 22:40,50.5530183333333,-96.6630533333333,12.4,15.1,198,983.99,20.4,54,21.42,2.9,1009.77,126.7
2018-08-02 22:50,50.5587316666667,-96.6665066666667,12.1,16.7,189,983.88,20.5,54,21.43,2.2,1009.66,126.7
2018-08-02 23:00,50.5587,-96.6665733333333,14.3,17.0,181,983.61,20.6,53,21.39,0.0,1009.38,31.3
2018-08-02 23:10,50.55874,-96.66667,14.5,17.2,183,983.76,20.4,53,21.38,0.0,1009.53,31.3
2018-08-02 23:20,50.574925,-96.6653116666667,8.8,19.5,180,984.04,20.6,53,21.38,5.8,1009.80,31.3
2018-08-02 23:30,50.6056533333333,-96.6573216666667,3.5,6.5,159,984.17,21.1,53,21.28,11.2,1009.92,31.3
2018-08-02 23:40,50.6363,-96.649035,4.1,7.4,181,984.11,21.1,53,21.03,11.2,1009.85,31.3
2018-08-02 23:50,50.6477316666667,-96.6463916666667,12.1,15.5,194,983.88,21.8,51,21.04,4.2,1009.58,31.3
